Lake Oliver Weather Center

Moon Phase Calendar



Lake Oliver Water Level
Online Cameras

 


      

Current Conditions in Smiths
9/23/2021 10:31:35 PM

57°F
Feels Like 57
Clear
Humidity
90%
Pressure
30.06"
Wind
6 mph (NNW)
Dew Point
55°F
UV Index
0/10 (Low)
Visibility
6 mi

Hourly Forecast

Date & Time Thu, Sep 23
10:00 PM
Thu, Sep 23
11:00 PM
Fri, Sep 24
12:00 AM
Fri, Sep 24
1:00 AM
Fri, Sep 24
2:00 AM
Fri, Sep 24
3:00 AM
Fri, Sep 24
4:00 AM
Fri, Sep 24
5:00 AM
Fri, Sep 24
6:00 AM
Fri, Sep 24
7:00 AM
Fri, Sep 24
8:00 AM
Fri, Sep 24
9:00 AM
Fri, Sep 24
10:00 AM
Fri, Sep 24
11:00 AM
Fri, Sep 24
12:00 PM
Fri, Sep 24
1:00 PM
Fri, Sep 24
2:00 PM
Fri, Sep 24
3:00 PM
Fri, Sep 24
4:00 PM
Fri, Sep 24
5:00 PM
Fri, Sep 24
6:00 PM
Fri, Sep 24
7:00 PM
Fri, Sep 24
8:00 PM
Fri, Sep 24
9:00 PM
Fri, Sep 24
10:00 PM
Fri, Sep 24
11:00 PM
Sat, Sep 25
12:00 AM
Sat, Sep 25
1:00 AM
Sat, Sep 25
2:00 AM
Sat, Sep 25
3:00 AM
Sat, Sep 25
4:00 AM
Sat, Sep 25
5:00 AM
Sat, Sep 25
6:00 AM
Sat, Sep 25
7:00 AM
Sat, Sep 25
8:00 AM
Sat, Sep 25
9:00 AM
Sat, Sep 25
10:00 AM
Sat, Sep 25
11:00 AM
Sat, Sep 25
12:00 PM
Sat, Sep 25
1:00 PM
Sat, Sep 25
2:00 PM
Sat, Sep 25
3:00 PM
Sat, Sep 25
4:00 PM
Sat, Sep 25
5:00 PM
Sat, Sep 25
6:00 PM
Sat, Sep 25
7:00 PM
Sat, Sep 25
8:00 PM
Sat, Sep 25
9:00 PM
Condition
Clear

Clear

Clear

Clear

Clear

Clear

Clear

Clear

Clear

Clear

Clear

Clear

Clear

Clear

Clear

Clear

Clear

Clear

Clear

Clear

Clear

Clear

Clear

Clear

Clear

Clear

Clear

Clear

Clear

Clear

Clouds

Clouds

Clouds

Clouds

Clouds

Clouds

Clouds

Clouds

Clouds

Clouds

Clouds

Clouds

Clouds

Clouds

Clouds

Clouds

Clouds

Clear
Temperature 58°F57°F57°F57°F57°F56°F55°F54°F53°F52°F52°F58°F63°F68°F73°F76°F78°F79°F79°F78°F77°F72°F67°F66°F65°F63°F62°F61°F61°F60°F60°F59°F59°F58°F59°F64°F69°F73°F77°F78°F81°F82°F82°F81°F80°F74°F70°F68°F
Feels Like 57°F57°F57°F57°F56°F55°F54°F53°F52°F51°F51°F56°F62°F67°F72°F75°F77°F79°F79°F78°F77°F71°F66°F65°F64°F62°F61°F61°F60°F60°F59°F59°F58°F58°F59°F63°F68°F73°F76°F78°F81°F81°F81°F81°F80°F74°F69°F67°F
Cloudiness 0%0%0%0%0%0%0%0%0%1%2%1%1%3%3%3%2%0%0%0%0%0%0%0%1%2%3%5%6%2%16%28%46%54%62%20%46%64%73%79%82%67%33%22%17%13%11%0%
Visibility 6 mi6 mi6 mi6 mi6 mi6 mi6 mi6 mi6 mi6 mi6 mi6 mi6 mi6 mi6 mi6 mi6 mi6 mi6 mi6 mi6 mi6 mi6 mi6 mi6 mi6 mi6 mi6 mi6 mi6 mi6 mi6 mi6 mi6 mi6 mi6 mi6 mi6 mi6 mi6 mi6 mi6 mi6 mi6 mi6 mi6 mi6 mi6 mi
Precipitation 0%0%0%0%0%0%0%0%0%0%0%0%0%0%0%0%0%0%0%0%0%0%0%0%0%0%0%0%0%0%0%0%0%0%0%0%0%0%0%0%0%0%0%0%0%0%0%0%
Humidity 85%90%86%84%82%79%77%78%79%81%81%70%58%49%42%38%35%34%34%35%44%55%58%61%64%67%71%74%75%77%79%80%80%82%80%71%61%55%50%47%42%39%37%38%44%55%58%62%
Dew Point 53°F55°F53°F52°F51°F49°F47°F47°F46°F46°F46°F48°F48°F48°F48°F48°F48°F48°F48°F49°F53°F54°F52°F51°F52°F52°F52°F53°F53°F53°F53°F53°F53°F52°F53°F54°F55°F55°F56°F56°F55°F54°F53°F53°F55°F57°F54°F54°F
Pressure 30.06"30.06"30.06"30.06"30.03"30.03"30.03"30.03"30.06"30.06"30.09"30.09"30.09"30.09"30.09"30.09"30.06"30.03"30.03"30"30"30.03"30.03"30.06"30.06"30.06"30.06"30.06"30.06"30.06"30.06"30.09"30.09"30.09"30.09"30.12"30.12"30.12"30.12"30.09"30.09"30.06"30.03"30.03"30.03"30.03"30.03"30.06"
Wind Speed 6 mph6 mph6.2 mph6.1 mph6.1 mph6.2 mph6.1 mph5.8 mph5.4 mph5.4 mph5 mph5.6 mph4.6 mph4.1 mph3.9 mph3.8 mph3.9 mph3.4 mph3.2 mph3.5 mph3.5 mph3.3 mph3.1 mph2.8 mph2.9 mph3.1 mph3.4 mph2.6 mph3.3 mph2.7 mph2.4 mph3 mph2.8 mph3 mph3 mph2.6 mph2.9 mph2.3 mph1.4 mph1.5 mph1.1 mph2.1 mph1.8 mph1.4 mph1 mph0.3 mph1.1 mph2.2 mph
Wind
Direction
344°
NNW
347°
NNW
351°
N
352°
N
353°
N
356°
N
357°
N

N

N
356°
N

N
28°
NNE
37°
NE
54°
NE
74°
ENE
87°
E
100°
E
102°
ESE
103°
ESE
107°
ESE
108°
ESE
104°
ESE
91°
E
81°
E
80°
E
71°
ENE
69°
ENE
50°
NE
57°
ENE
43°
NE
45°
NE
66°
ENE
47°
NE
45°
NE
45°
NE
58°
ENE
85°
E
102°
ESE
91°
E
132°
SE
300°
WNW
318°
NW
322°
NW
319°
NW
311°
NW
227°
SW
338°
NNW
358°
N

Daily Forecast

Date High Low Precip. Humidity
Today
Sep 23

Clear
76 °F
55 °F
0%
40%
Friday
Sep 24

Clear
79 °F
52 °F
0%
38%
Saturday
Sep 25

Clouds
81 °F
58 °F
0%
42%
Sunday
Sep 26

Clouds
84 °F
61 °F
0%
33%
Monday
Sep 27

Clouds
85 °F
62 °F
0%
35%
Tuesday
Sep 28

Clouds
86 °F
63 °F
0%
35%
Wednesday
Sep 29

Clouds
88 °F
65 °F
0%
37%
Thursday
Sep 30

Clouds
87 °F
67 °F
0%
40%
Friday
Oct 1

Clouds
80 °F
67 °F
0%
49%
Saturday
Oct 2

Clouds
78 °F
60 °F
0%
40%
Sunday
Oct 3

Clouds
81 °F
60 °F
0%
33%
Monday
Oct 4

Clear
80 °F
52 °F
0%
28%
Tuesday
Oct 5

Clouds
76 °F
56 °F
0%
41%
Wednesday
Oct 6

Clouds
73 °F
63 °F
9%
57%
Thursday
Oct 7

Rain
72 °F
62 °F
39%
58%
Friday
Oct 8

Clouds
79 °F
57 °F
0%
47%

Temperature 8-14 Day Outlook



Precipitation 8-14 Day Outlook




Quick Links
Lake Oliver News
Lake Oliver Photos
Lake Oliver Videos




About Us
Contact Us
Site Map
Search Site
Advertise With Us
   
Oliver.USLakes.info
THE LAKE OLIVER WEBSITE

Copyright 2021, Lakes Online
Privacy    |    Legal